[[{"header":{"parameterUnit":"m.s-1","parameterCategory":1,"la1":30.2991,"la2":30.254,"lo1":-89.0895,"lo2":-89.0444,"dy":0.0017,"dx":0.0017,"nx":28,"ny":28,"refTime":"2024-05-19T03:00:00:Z","depth":0,"parameterNumber":2,"parameterNumberName":"U-component_of_WINDS"},"data":[0,0,0,0,0,0,0,0,0,0,0,0,0,0,0,0,0,0,0,0,0,0,0,0,0,0,0,0,0,0,0,0,0,0,0,0,0,0,0,0,0,0,0,0,0,0,0,0,0,0,0,0,0,0,0,0,0,0,1.6466,1.6467,0,1.6548,1.6549,1.655,1.6536,1.6535,1.6533,1.6532,1.662,1.6624,1.6627,0,0,0,0,0,0,0,0,0,0,0,0,0,1.6301,1.6304,1.6466,1.6467,1.6468,1.6548,1.6549,1.6551,1.6537,1.6535,1.6533,1.6531,1.6619,1.6623,1.6628,0,0,0,0,0,0,0,0,0,0,0,0,0,1.6377,1.6305,1.6466,1.6471,1.6472,1.6548,1.6549,1.6551,1.6537,1.6535,1.6533,1.6531,1.6617,1.6623,1.6628,1.6706,0,0,1.6645,1.6647,0,0,0,0,0,0,0,0,1.6372,1.6383,1.6469,1.647,1.6472,1.653,1.6523,1.6603,1.6538,1.6512,1.6532,1.653,1.6592,1.6599,1.662,1.671,1.6714,1.6646,1.6649,1.6651,1.6653,0,0,0,0,0,0,0,1.6367,1.6379,1.6499,1.647,1.6472,1.647,1.6479,1.6538,1.6563,1.6514,1.6514,1.6523,1.6592,1.6614,1.6622,1.6715,1.6645,1.665,1.6654,1.6656,1.6876,1.6878,0,0,0,0,0,0,1.636,1.6375,1.6496,1.6501,1.6416,1.6475,1.6484,1.6513,1.6563,1.6568,1.6525,1.6522,1.6606,1.6615,1.6625,1.672,1.6651,1.6656,1.666,1.6873,1.6876,1.6879,0,0,0,0,0,0,1.6356,1.6371,1.6493,1.6438,1.6453,1.648,1.6513,1.6516,1.6538,1.6571,1.6576,1.6543,1.6605,1.6617,1.6686,1.6723,1.6659,1.6664,1.687,1.6874,1.6877,1.6911,0,0,0,0,0,0,1.6352,1.637,1.6398,1.6439,1.6456,1.6551,1.6515,1.6519,1.6547,1.6545,1.6589,1.6594,1.6604,1.6678,1.6692,1.673,1.6668,1.6867,1.6872,1.6876,1.6907,1.6916,1.6923,0,0,0,0,0,1.6346,1.6404,1.64,1.6414,1.6492,1.6553,1.6563,1.6573,1.655,1.658,1.6602,1.6592,1.6717,1.6685,1.67,1.6741,1.6865,1.687,1.6876,1.6903,1.6914,1.6923,0,0,0,0,0,0,1.6368,1.641,1.6405,1.6478,1.6512,1.6551,1.6588,1.6584,1.6626,1.6621,1.6633,1.6643,1.6713,1.6734,1.6698,1.682,1.6788,1.6797,1.6803,1.6814,1.6822,1.6816,1.6673,0,0,0,0,0,1.6381,1.6426,1.6461,1.6522,1.6539,1.6561,1.6588,1.6593,1.6629,1.6643,1.667,1.6706,1.6754,1.6785,1.683,1.691,1.6921,1.6946,1.6954,1.696,1.6968,1.7014,1.7026,1.6897,1.6897,1.6897,0,0,1.6409,1.6438,1.6465,1.6527,1.6554,1.6602,1.6573,1.6625,1.6661,1.6652,1.6718,1.6739,1.6781,1.6856,1.6891,1.6876,1.7006,1.6967,1.6972,1.6977,1.7021,1.7033,1.7044,1.6901,1.6901,1.69,0,0,1.6485,1.651,1.6565,1.6593,1.6634,1.6649,1.6662,1.6702,1.6715,1.6783,1.6777,1.6821,1.6902,1.6933,1.6959,1.705,1.7044,1.7064,1.7107,1.7151,1.7161,1.7171,1.7204,1.7216,1.7072,1.7072,1.7072,0,1.6515,1.6586,1.6594,1.6647,1.6675,1.6669,1.6725,1.6753,1.6807,1.6827,1.681,1.6913,1.694,1.7024,1.7046,1.7067,1.7084,1.7059,1.7159,1.7168,1.7177,1.7209,1.7222,1.7074,1.7074,1.7074,1.7073,0,1.6621,1.6671,1.671,1.6763,1.6796,1.685,1.6869,1.6901,1.6904,1.692,1.699,1.7024,1.7077,1.7097,1.7099,1.7181,1.7171,1.7156,1.7124,1.7191,1.7222,1.7234,1.7077,1.7077,1.7076,1.7075,0,0,1.6712,1.677,1.6784,1.6809,1.6855,1.6894,1.695,1.7001,1.703,1.7068,1.7116,1.7186,1.7173,1.7203,1.7209,1.7249,1.732,1.7229,1.7231,1.7246,1.7415,1.7426,1.744,1.7316,1.7319,1.7321,1.7412,0,1.6793,1.6889,1.69,1.6987,1.7034,1.703,1.7078,1.7113,1.7131,1.7175,1.7195,1.7245,1.7223,1.7241,1.728,1.7303,1.7354,1.7297,1.7363,1.7365,1.7353,1.7456,1.7467,1.7551,1.7423,1.7425,1.7427,0,1.69,1.6941,1.7033,1.7075,1.7095,1.7138,1.7187,1.7228,1.7269,1.7279,1.7314,1.7316,1.7375,1.7341,1.7424,1.7385,1.7413,1.7429,1.7432,1.7439,1.74,1.7466,1.7578,1.7591,1.7446,1.7444,1.7443,0,1.6958,1.7037,1.7103,1.7124,1.7174,1.7205,1.7227,1.7265,1.7296,1.734,1.736,1.741,1.7438,1.7478,1.7494,1.7468,1.7577,1.7544,1.7589,1.7589,1.7612,1.7611,1.7731,1.7629,1.7629,1.7629,1.7628,0,1.7048,1.7105,1.713,1.717,1.7235,1.7247,1.7311,1.7332,1.7366,1.7412,1.7412,1.7455,1.7474,1.7521,1.7534,1.7602,1.7614,1.7626,1.7629,1.7626,1.7625,1.7645,1.764,1.7632,1.7631,1.7631,1.763,0,1.7124,1.7143,1.7215,1.7257,1.7269,1.7314,1.7351,1.7391,1.7409,1.7467,1.7482,1.751,1.7566,1.7586,1.7653,1.7663,1.7742,1.7739,1.7728,1.7729,1.7773,1.7769,1.7911,1.7931,1.7815,1.7816,1.7817,0,1.718,1.7224,1.7271,1.7301,1.7325,1.7374,1.7405,1.742,1.7454,1.7504,1.7539,1.7594,1.7638,1.7728,1.7755,1.7808,1.7807,1.7854,1.7815,1.7812,1.781,1.7807,1.7812,1.7861,1.7862,1.7863,1.7864,0,1.7278,1.7286,1.7331,1.7381,1.7419,1.7459,1.7497,1.7523,1.7544,1.7582,1.7638,1.7673,1.7742,1.7798,1.7852,1.7877,1.7875,1.7876,1.7889,1.7887,1.7879,1.7885,1.7748,1.7872,1.7871,1.7871,1.787,1.787,1.7347,1.7386,1.7426,1.7477,1.7508,1.7545,1.7585,1.7608,1.7655,1.7712,1.7719,1.778,1.7822,1.7894,1.7922,1.7971,1.7959,1.7978,1.7983,1.7987,1.7991,1.7871,1.7981,1.7981,1.798,1.798,1.798,0,1.7446,1.7472,1.7519,1.7573,1.7614,1.7608,1.7651,1.7686,1.774,1.7779,1.7823,1.7889,1.7943,1.7976,1.8031,1.8064,1.8065,1.8078,1.8076,1.8083,1.7998,1.7982,1.8077,1.8077,1.8077,1.8077,1.8077,1.8077,1.7502,1.7569,1.7582,1.7665,1.7691,1.775,1.7776,1.781,1.7841,1.7915,1.796,1.7981,1.8018,1.8076,1.8126,1.8134,1.8155,1.817,1.8177,1.8098,1.8088,1.8079,1.8063,1.8174,1.8174,1.8258,1.8258,1.8259]},{"header":{"parameterUnit":"m.s-1","parameterCategory":1,"la1":30.2991,"la2":30.254,"lo1":-89.0895,"lo2":-89.0444,"dy":0.0017,"dx":0.0017,"nx":28,"ny":28,"refTime":"2024-05-19T03:00:00:Z","depth":0,"parameterNumber":3,"parameterNumberName":"V-component_of_WINDS"},"data":[0,0,0,0,0,0,0,0,0,0,0,0,0,0,0,0,0,0,0,0,0,0,0,0,0,0,0,0,0,0,0,0,0,0,0,0,0,0,0,0,0,0,0,0,0,0,0,0,0,0,0,0,0,0,0,0,0,0,0.9445,0.9447,0,0.9629,0.9631,0.9633,0.962,0.9618,0.9615,0.9612,0.9803,0.9811,0.9818,0,0,0,0,0,0,0,0,0,0,0,0,0,0.9079,0.9086,0.9444,0.9447,0.9449,0.9629,0.9631,0.9634,0.9621,0.9618,0.9614,0.9611,0.9801,0.981,0.9819,0,0,0,0,0,0,0,0,0,0,0,0,0,0.9248,0.9088,0.9444,0.9464,0.9468,0.9628,0.9631,0.9634,0.9622,0.9617,0.9613,0.961,0.9798,0.9809,0.982,0.9973,0,0,0.9855,0.986,0,0,0,0,0,0,0,0,0.9239,0.9262,0.9459,0.9463,0.9468,0.9597,0.9572,0.9748,0.9623,0.9563,0.9612,0.9608,0.9738,0.9754,0.9798,0.9982,0.999,0.9856,0.9863,0.9868,0.9871,0,0,0,0,0,0,0,0.9227,0.9254,0.9517,0.9462,0.9467,0.9463,0.9483,0.9606,0.9672,0.9568,0.9568,0.959,0.974,0.9787,0.9803,0.9993,0.9856,0.9866,0.9873,0.9878,1.0304,1.0309,0,0,0,0,0,0,0.9211,0.9244,0.9512,0.9523,0.9341,0.9473,0.9495,0.956,0.967,0.9683,0.9593,0.9588,0.977,0.9789,0.9809,0.9991,0.9868,0.9879,0.9885,1.03,1.0305,1.031,0,0,0,0,0,0,0.9203,0.9235,0.9504,0.9383,0.9417,0.9484,0.9557,0.9566,0.9613,0.9689,0.9701,0.9629,0.9767,0.9793,0.9931,0.9998,0.9884,0.9894,1.0295,1.0302,1.0308,1.0359,0,0,0,0,0,0,0.9193,0.9232,0.9292,0.9385,0.9424,0.9624,0.9561,0.9572,0.9632,0.9628,0.9726,0.9738,0.9766,0.9914,0.9942,1.0011,0.9903,1.0289,1.0298,1.0306,1.0351,1.0366,1.0379,0,0,0,0,0,0.918,0.9301,0.9295,0.9327,0.95,0.9628,0.965,0.9679,0.9638,0.9698,0.9745,0.9735,0.9985,0.9928,0.996,1.0034,1.0285,1.0295,1.0305,1.0345,1.0363,1.0379,0,0,0,0,0,0,0.9217,0.9314,0.9308,0.9463,0.9537,0.9625,0.9702,0.9698,0.9786,0.9779,0.9811,0.9833,0.997,1.0016,0.995,1.0184,1.013,1.0147,1.0149,1.0167,1.0181,1.0167,0.9913,0,0,0,0,0,0.9243,0.9338,0.9418,0.9547,0.9584,0.9636,0.9693,0.9708,0.9786,0.9818,0.9876,0.9952,1.0047,1.011,1.0202,1.0357,1.0376,1.0423,1.0437,1.0448,1.0462,1.0542,1.0562,1.0343,1.0343,1.0343,0,0,0.9298,0.9363,0.9422,0.9556,0.9615,0.9711,0.9663,0.9769,0.9841,0.9834,0.9967,1.0011,1.0098,1.0243,1.0311,1.0286,1.0526,1.0461,1.0469,1.0477,1.0554,1.0575,1.0593,1.035,1.0349,1.0348,0,0,0.9448,0.9508,0.9619,0.9677,0.9766,0.9799,0.9825,0.9913,0.9942,1.0074,1.007,1.0155,1.032,1.038,1.0432,1.0597,1.0589,1.0626,1.0699,1.0776,1.0793,1.0809,1.0864,1.0884,1.064,1.064,1.064,0,0.9506,0.9652,0.9677,0.9782,0.984,0.9835,0.9946,1.0002,1.0117,1.0156,1.0126,1.0328,1.0386,1.0543,1.0582,1.0626,1.0655,1.0616,1.0789,1.0804,1.0819,1.0872,1.0893,1.0643,1.0643,1.0643,1.0642,0,0.9717,0.9817,0.9897,1.0004,1.007,1.0178,1.0218,1.0282,1.0289,1.0324,1.0456,1.0525,1.0629,1.0667,1.0678,1.0824,1.0805,1.0782,1.0728,1.0843,1.0893,1.0914,1.0649,1.0647,1.0646,1.0645,0,0,0.99,1.0014,1.0043,1.0089,1.0183,1.0261,1.0366,1.0466,1.0518,1.0595,1.0683,1.0819,1.0795,1.0855,1.087,1.0939,1.1059,1.0906,1.0908,1.093,1.122,1.1236,1.1259,1.1054,1.1058,1.1061,1.1211,0,1.0057,1.0244,1.0266,1.0432,1.0523,1.0516,1.0607,1.0673,1.0708,1.0789,1.0827,1.0921,1.0885,1.092,1.0987,1.103,1.1117,1.102,1.1134,1.1138,1.1111,1.1286,1.1305,1.1444,1.1232,1.1235,1.1238,0,1.0267,1.0346,1.052,1.0595,1.0635,1.0717,1.0806,1.0884,1.0957,1.0977,1.1039,1.1045,1.1151,1.1091,1.1236,1.1169,1.1216,1.1244,1.125,1.1261,1.1194,1.1301,1.149,1.151,1.1269,1.1267,1.1265,0,1.0379,1.053,1.0652,1.0692,1.0784,1.084,1.0882,1.0951,1.1007,1.1084,1.112,1.121,1.1259,1.1327,1.1355,1.131,1.1496,1.1441,1.1514,1.1513,1.1555,1.1551,1.1752,1.1587,1.1587,1.1586,1.1586,0,1.0552,1.0658,1.0702,1.0778,1.0894,1.0917,1.1032,1.1071,1.1131,1.1211,1.1211,1.1287,1.132,1.14,1.1422,1.1536,1.1559,1.1576,1.158,1.1576,1.1573,1.1607,1.1598,1.1592,1.159,1.1589,1.1588,0,1.0699,1.0733,1.0864,1.0938,1.0959,1.1042,1.1104,1.1176,1.1206,1.1308,1.1333,1.1382,1.1475,1.1509,1.1624,1.1638,1.1769,1.1767,1.1744,1.1745,1.1815,1.1807,1.2044,1.2075,1.1891,1.1892,1.1894,0,1.0807,1.0887,1.0968,1.1021,1.1063,1.1149,1.1204,1.1229,1.1286,1.1372,1.1432,1.1524,1.1599,1.1748,1.1793,1.1879,1.1877,1.1954,1.189,1.188,1.1875,1.1869,1.1875,1.1966,1.1968,1.1969,1.1971,0,1.0993,1.1004,1.1084,1.1169,1.1234,1.1302,1.1368,1.1411,1.1445,1.1509,1.1603,1.1661,1.1774,1.1865,1.1951,1.1992,1.1986,1.1989,1.201,1.2006,1.1988,1.1996,1.1775,1.1984,1.1983,1.1982,1.1981,1.1981,1.1123,1.1191,1.1257,1.1344,1.1395,1.1455,1.1524,1.1561,1.164,1.1733,1.1742,1.1842,1.1907,1.2023,1.2066,1.2144,1.2123,1.2154,1.2162,1.2169,1.2172,1.1976,1.216,1.2159,1.2159,1.2159,1.2159,0,1.1307,1.1347,1.1427,1.1517,1.1584,1.157,1.164,1.1698,1.1785,1.1846,1.1918,1.2023,1.2109,1.2158,1.2243,1.2295,1.2294,1.2316,1.2313,1.2321,1.2188,1.216,1.2315,1.2315,1.2315,1.2315,1.2315,1.2315,1.1411,1.1525,1.1543,1.1681,1.172,1.1817,1.1858,1.1912,1.1959,1.2076,1.2147,1.2177,1.2232,1.232,1.2396,1.2408,1.2439,1.2463,1.2473,1.2347,1.2331,1.2316,1.229,1.247,1.247,1.2599,1.26,1.2601]}]]